{"data":{"norad_id":46535,"epoch":"2026-07-01T12:35:58.015392Z","epoch_age_seconds":7018211,"freshness":"OLD","line1":"1 46535U 20070D   26182.52497703  .06895339  12377-4  66074-3 0  9991","line2":"2 46535  53.0163 282.6120 0009270 310.8021  49.2219 16.37539101318091","mean_motion":16.37539101,"eccentricity":0.000927,"inclination_deg":53.0163,"raan_deg":282.612,"arg_perigee_deg":310.8021,"mean_anomaly_deg":49.2219,"bstar":0.00066074,"rev_number":31809,"period_min":87.936831500428,"perigee_km":166.28472606692,"apogee_km":178.42934200602,"semimajor_km":6550.4940340365,"source":"CELESTRAK","updated_at":"2026-07-02T09:00:31.710396Z"}}